Year,Month,Day,Hour,Minute,Value (Times are PST for temperature in C)
2016,04,20,00,00,14.30
2016,04,20,00,01,14.30
2016,04,20,00,02,14.30
2016,04,20,00,03,14.30
2016,04,20,00,04,14.30
2016,04,20,00,05,14.30
2016,04,20,00,06,14.30
2016,04,20,00,07,14.30
2016,04,20,00,08,14.30
2016,04,20,00,09,14.30
2016,04,20,00,10,14.30
2016,04,20,00,11,14.30
2016,04,20,00,12,14.30
2016,04,20,00,13,14.30
2016,04,20,00,14,14.30
2016,04,20,00,15,14.30
2016,04,20,00,16,14.30
2016,04,20,00,17,14.30
2016,04,20,00,18,14.30
2016,04,20,00,19,14.30
2016,04,20,00,20,14.30
2016,04,20,00,21,14.30
2016,04,20,00,22,14.20
2016,04,20,00,23,14.20
2016,04,20,00,24,14.20
2016,04,20,00,25,14.20
2016,04,20,00,26,14.20
2016,04,20,00,27,14.20
2016,04,20,00,28,14.10
2016,04,20,00,29,14.10
2016,04,20,00,30,14.10
2016,04,20,00,31,14.00
2016,04,20,00,32,14.00
2016,04,20,00,33,13.90
2016,04,20,00,34,13.80
2016,04,20,00,35,13.80
2016,04,20,00,36,13.80
2016,04,20,00,37,13.70
2016,04,20,00,38,13.70
2016,04,20,00,39,13.70
2016,04,20,00,40,13.70
2016,04,20,00,41,13.70
2016,04,20,00,42,13.70
2016,04,20,00,43,13.70
2016,04,20,00,44,13.60
2016,04,20,00,45,13.60
2016,04,20,00,46,13.60
2016,04,20,00,47,13.60
2016,04,20,00,48,13.60
2016,04,20,00,49,13.50
2016,04,20,00,50,13.40
2016,04,20,00,51,13.30
2016,04,20,00,52,13.20
2016,04,20,00,53,13.10
2016,04,20,00,54,13.00
2016,04,20,00,55,12.80
2016,04,20,00,56,12.70
2016,04,20,00,57,12.60
2016,04,20,00,58,12.60
2016,04,20,00,59,12.50
2016,04,20,01,00,12.40
2016,04,20,01,01,12.40
2016,04,20,01,02,12.30
2016,04,20,01,03,12.30
2016,04,20,01,04,12.30
2016,04,20,01,05,12.30
2016,04,20,01,06,12.30
2016,04,20,01,07,12.30
2016,04,20,01,08,12.30
2016,04,20,01,09,12.30
2016,04,20,01,10,12.30
2016,04,20,01,11,12.30
2016,04,20,01,12,12.30
2016,04,20,01,13,12.30
2016,04,20,01,14,12.30
2016,04,20,01,15,12.30
2016,04,20,01,16,12.30
2016,04,20,01,17,12.30
2016,04,20,01,18,12.30
2016,04,20,01,19,12.30
2016,04,20,01,20,12.30
2016,04,20,01,21,12.30
2016,04,20,01,22,12.30
2016,04,20,01,23,12.30
2016,04,20,01,24,12.30
2016,04,20,01,25,12.30
2016,04,20,01,26,12.30
2016,04,20,01,27,12.30
2016,04,20,01,28,12.30
2016,04,20,01,29,12.30
2016,04,20,01,30,12.30
2016,04,20,01,31,12.30
2016,04,20,01,32,12.30
2016,04,20,01,33,12.40
2016,04,20,01,34,12.40
2016,04,20,01,35,12.50
2016,04,20,01,36,12.50
2016,04,20,01,37,12.60
2016,04,20,01,38,12.60
2016,04,20,01,39,12.60
2016,04,20,01,40,12.60
2016,04,20,01,41,12.60
2016,04,20,01,42,12.60
2016,04,20,01,43,12.60
2016,04,20,01,44,12.60
2016,04,20,01,45,12.60
2016,04,20,01,46,12.60
2016,04,20,01,47,12.70
2016,04,20,01,48,12.70
2016,04,20,01,49,12.70
2016,04,20,01,50,12.70
2016,04,20,01,51,12.70
2016,04,20,01,52,12.70
2016,04,20,01,53,12.70
2016,04,20,01,54,12.70
2016,04,20,01,55,12.70
2016,04,20,01,56,12.70
2016,04,20,01,57,12.70
2016,04,20,01,58,12.70
2016,04,20,01,59,12.70
2016,04,20,02,00,12.70
2016,04,20,02,01,12.60
2016,04,20,02,02,12.60
2016,04,20,02,03,12.60
2016,04,20,02,04,12.60
2016,04,20,02,05,12.60
2016,04,20,02,06,12.60
2016,04,20,02,07,12.60
2016,04,20,02,08,12.60
2016,04,20,02,09,12.60
2016,04,20,02,10,12.60
2016,04,20,02,11,12.60
2016,04,20,02,12,12.60
2016,04,20,02,13,12.60
2016,04,20,02,14,12.60
2016,04,20,02,15,12.60
2016,04,20,02,16,12.60
2016,04,20,02,17,12.50
2016,04,20,02,18,12.50
2016,04,20,02,19,12.50
2016,04,20,02,20,12.50
2016,04,20,02,21,12.40
2016,04,20,02,22,12.40
2016,04,20,02,23,12.40
2016,04,20,02,24,12.40
2016,04,20,02,25,12.40
2016,04,20,02,26,12.40
2016,04,20,02,27,12.40
2016,04,20,02,28,12.40
2016,04,20,02,29,12.40
2016,04,20,02,30,12.40
2016,04,20,02,31,12.50
2016,04,20,02,32,12.50
2016,04,20,02,33,12.50
2016,04,20,02,34,12.60
2016,04,20,02,35,12.60
2016,04,20,02,36,12.60
2016,04,20,02,37,12.60
2016,04,20,02,38,12.60
2016,04,20,02,39,12.60
2016,04,20,02,40,12.60
2016,04,20,02,41,12.50
2016,04,20,02,42,12.50
2016,04,20,02,43,12.50
2016,04,20,02,44,12.50
2016,04,20,02,45,12.50
2016,04,20,02,46,12.50
2016,04,20,02,47,12.50
2016,04,20,02,48,12.50
2016,04,20,02,49,12.40
2016,04,20,02,50,12.40
2016,04,20,02,51,12.40
2016,04,20,02,52,12.40
2016,04,20,02,53,12.40
2016,04,20,02,54,12.40
2016,04,20,02,55,12.40
2016,04,20,02,56,12.40
2016,04,20,02,57,12.30
2016,04,20,02,58,12.30
2016,04,20,02,59,12.30
2016,04,20,03,00,12.30
2016,04,20,03,01,12.30
2016,04,20,03,02,12.30
2016,04,20,03,03,12.30
2016,04,20,03,04,12.30
2016,04,20,03,05,12.30
2016,04,20,03,06,12.30
2016,04,20,03,07,12.20
2016,04,20,03,08,12.20
2016,04,20,03,09,12.20
2016,04,20,03,10,12.20
2016,04,20,03,11,12.20
2016,04,20,03,12,12.20
2016,04,20,03,13,12.20
2016,04,20,03,14,12.20
2016,04,20,03,15,12.20
2016,04,20,03,16,12.20
2016,04,20,03,17,12.20
2016,04,20,03,18,12.20
2016,04,20,03,19,12.10
2016,04,20,03,20,12.10
2016,04,20,03,21,12.10
2016,04,20,03,22,12.10
2016,04,20,03,23,12.20
2016,04,20,03,24,12.20
2016,04,20,03,25,12.20
2016,04,20,03,26,12.20
2016,04,20,03,27,12.20
2016,04,20,03,28,12.20
2016,04,20,03,29,12.20
2016,04,20,03,30,12.20
2016,04,20,03,31,12.20
2016,04,20,03,32,12.20
2016,04,20,03,33,12.30
2016,04,20,03,34,12.30
2016,04,20,03,35,12.30
2016,04,20,03,36,12.30
2016,04,20,03,37,12.30
2016,04,20,03,38,12.30
2016,04,20,03,39,12.30
2016,04,20,03,40,12.30
2016,04,20,03,41,12.30
2016,04,20,03,42,12.30
2016,04,20,03,43,12.30
2016,04,20,03,44,12.30
2016,04,20,03,45,12.30
2016,04,20,03,46,12.30
2016,04,20,03,47,12.30
2016,04,20,03,48,12.30
2016,04,20,03,49,12.30
2016,04,20,03,50,12.30
2016,04,20,03,51,12.30
2016,04,20,03,52,12.30
2016,04,20,03,53,12.20
2016,04,20,03,54,12.20
2016,04,20,03,55,12.20
2016,04,20,03,56,12.20
2016,04,20,03,57,12.20
2016,04,20,03,58,12.20
2016,04,20,03,59,12.20
2016,04,20,04,00,12.20
2016,04,20,04,01,12.20
2016,04,20,04,02,12.20
2016,04,20,04,03,12.20
2016,04,20,04,04,12.10
2016,04,20,04,05,12.10
2016,04,20,04,06,12.20
2016,04,20,04,07,12.10
2016,04,20,04,08,12.10
2016,04,20,04,09,12.10
2016,04,20,04,10,12.10
2016,04,20,04,11,12.10
2016,04,20,04,12,12.20
2016,04,20,04,13,12.20
2016,04,20,04,14,12.10
2016,04,20,04,15,12.10
2016,04,20,04,16,12.10
2016,04,20,04,17,12.20
2016,04,20,04,18,12.20
2016,04,20,04,19,12.20
2016,04,20,04,20,12.20
2016,04,20,04,21,12.20
2016,04,20,04,22,12.20
2016,04,20,04,23,12.20
2016,04,20,04,24,12.20
2016,04,20,04,25,12.20
2016,04,20,04,26,12.10
2016,04,20,04,27,12.10
2016,04,20,04,28,12.10
2016,04,20,04,29,12.10
2016,04,20,04,30,12.10
2016,04,20,04,31,12.10
2016,04,20,04,32,12.10
2016,04,20,04,33,12.10
2016,04,20,04,34,12.00
2016,04,20,04,35,12.00
2016,04,20,04,36,12.00
2016,04,20,04,37,12.00
2016,04,20,04,38,12.00
2016,04,20,04,39,11.90
2016,04,20,04,40,11.90
2016,04,20,04,41,11.90
2016,04,20,04,42,11.90
2016,04,20,04,43,11.90
2016,04,20,04,44,11.90
2016,04,20,04,45,11.90
2016,04,20,04,46,11.90
2016,04,20,04,47,11.90
2016,04,20,04,48,11.90
2016,04,20,04,49,11.90
2016,04,20,04,50,11.90
2016,04,20,04,51,11.90
2016,04,20,04,52,11.90
2016,04,20,04,53,11.90
2016,04,20,04,54,11.90
2016,04,20,04,55,11.80
2016,04,20,04,56,11.80
2016,04,20,04,57,11.80
2016,04,20,04,58,11.80
2016,04,20,04,59,11.80
2016,04,20,05,00,11.80
2016,04,20,05,01,11.80
2016,04,20,05,02,11.80
2016,04,20,05,03,11.80
2016,04,20,05,04,11.80
2016,04,20,05,05,11.80
2016,04,20,05,06,11.80
2016,04,20,05,07,11.80
2016,04,20,05,08,11.80
2016,04,20,05,09,11.80
2016,04,20,05,10,11.80
2016,04,20,05,11,11.70
2016,04,20,05,12,11.70
2016,04,20,05,13,11.70
2016,04,20,05,14,11.70
2016,04,20,05,15,11.60
2016,04,20,05,16,11.60
2016,04,20,05,17,11.60
2016,04,20,05,18,11.60
2016,04,20,05,19,11.60
2016,04,20,05,20,11.60
2016,04,20,05,21,11.60
2016,04,20,05,22,11.60
2016,04,20,05,23,11.60
2016,04,20,05,24,11.60
2016,04,20,05,25,11.70
2016,04,20,05,26,11.70
2016,04,20,05,27,11.70
2016,04,20,05,28,11.70
2016,04,20,05,29,11.70
2016,04,20,05,30,11.70
2016,04,20,05,31,11.70
2016,04,20,05,32,11.70
2016,04,20,05,33,11.70
2016,04,20,05,34,11.70
2016,04,20,05,35,11.70
2016,04,20,05,36,11.70
2016,04,20,05,37,11.70
2016,04,20,05,38,11.70
2016,04,20,05,39,11.70
2016,04,20,05,40,11.70
2016,04,20,05,41,11.70
2016,04,20,05,42,11.70
2016,04,20,05,43,11.70
2016,04,20,05,44,11.70
2016,04,20,05,45,11.70
2016,04,20,05,46,11.70
2016,04,20,05,47,11.70
2016,04,20,05,48,11.70
2016,04,20,05,49,11.70
2016,04,20,05,50,11.70
2016,04,20,05,51,11.70
2016,04,20,05,52,11.70
2016,04,20,05,53,11.70
2016,04,20,05,54,11.70
2016,04,20,05,55,11.70
2016,04,20,05,56,11.70
2016,04,20,05,57,11.70
2016,04,20,05,58,11.70
2016,04,20,05,59,11.70
2016,04,20,06,00,11.70
2016,04,20,06,01,11.70
2016,04,20,06,02,11.80
2016,04,20,06,03,11.80
2016,04,20,06,04,11.80
2016,04,20,06,05,11.80
2016,04,20,06,06,11.80
2016,04,20,06,07,11.80
2016,04,20,06,08,11.80
2016,04,20,06,09,11.80
2016,04,20,06,10,11.80
2016,04,20,06,11,11.80
2016,04,20,06,12,11.80
2016,04,20,06,13,11.70
2016,04,20,06,14,11.70
2016,04,20,06,15,11.70
2016,04,20,06,16,11.70
2016,04,20,06,17,11.70
2016,04,20,06,18,11.70
2016,04,20,06,19,11.70
2016,04,20,06,20,11.70
2016,04,20,06,21,11.70
2016,04,20,06,22,11.70
2016,04,20,06,23,11.70
2016,04,20,06,24,11.70
2016,04,20,06,25,11.70
2016,04,20,06,26,11.70
2016,04,20,06,27,11.70
2016,04,20,06,28,11.70
2016,04,20,06,29,11.70
2016,04,20,06,30,11.70
2016,04,20,06,31,11.70
2016,04,20,06,32,11.70
2016,04,20,06,33,11.70
2016,04,20,06,34,11.70
2016,04,20,06,35,11.70
2016,04,20,06,36,11.70
2016,04,20,06,37,11.70
2016,04,20,06,38,11.70
2016,04,20,06,39,11.70
2016,04,20,06,40,11.70
2016,04,20,06,41,11.70
2016,04,20,06,42,11.70
2016,04,20,06,43,11.70
2016,04,20,06,44,11.70
2016,04,20,06,45,11.70
2016,04,20,06,46,11.70
2016,04,20,06,47,11.70
2016,04,20,06,48,11.70
2016,04,20,06,49,11.70
2016,04,20,06,50,11.70
2016,04,20,06,51,11.70
2016,04,20,06,52,11.80
2016,04,20,06,53,11.80
2016,04,20,06,54,11.80
2016,04,20,06,55,11.80
2016,04,20,06,56,11.80
2016,04,20,06,57,11.90
2016,04,20,06,58,11.90
2016,04,20,06,59,11.90
2016,04,20,07,00,11.90
2016,04,20,07,01,11.90
2016,04,20,07,02,11.90
2016,04,20,07,03,11.90
2016,04,20,07,04,11.90
2016,04,20,07,05,12.00
2016,04,20,07,06,12.00
2016,04,20,07,07,12.00
2016,04,20,07,08,12.10
2016,04,20,07,09,12.10
2016,04,20,07,10,12.10
2016,04,20,07,11,12.20
2016,04,20,07,12,12.20
2016,04,20,07,13,12.20
2016,04,20,07,14,12.30
2016,04,20,07,15,12.40
2016,04,20,07,16,12.40
2016,04,20,07,17,12.60
2016,04,20,07,18,12.70
2016,04,20,07,19,12.80
2016,04,20,07,20,12.90
2016,04,20,07,21,13.10
2016,04,20,07,22,13.20
2016,04,20,07,23,13.30
2016,04,20,07,24,13.50
2016,04,20,07,25,13.60
2016,04,20,07,26,13.80
2016,04,20,07,27,13.90
2016,04,20,07,28,14.10
2016,04,20,07,29,14.20
2016,04,20,07,30,14.30
2016,04,20,07,31,14.40
2016,04,20,07,32,14.50
2016,04,20,07,33,14.50
2016,04,20,07,34,14.60
2016,04,20,07,35,14.70
2016,04,20,07,36,14.80
2016,04,20,07,37,14.90
2016,04,20,07,38,15.00
2016,04,20,07,39,15.10
2016,04,20,07,40,15.20
2016,04,20,07,41,15.30
2016,04,20,07,42,15.40
2016,04,20,07,43,15.50
2016,04,20,07,44,15.60
2016,04,20,07,45,15.70
2016,04,20,07,46,15.80
2016,04,20,07,47,15.90
2016,04,20,07,48,16.00
2016,04,20,07,49,16.10
2016,04,20,07,50,16.20
2016,04,20,07,51,16.30
2016,04,20,07,52,16.30
2016,04,20,07,53,16.40
2016,04,20,07,54,16.40
2016,04,20,07,55,16.50
2016,04,20,07,56,16.50
2016,04,20,07,57,16.60
2016,04,20,07,58,16.60
2016,04,20,07,59,16.60
2016,04,20,08,00,16.70
2016,04,20,08,01,16.70
2016,04,20,08,02,16.80
2016,04,20,08,03,16.80
2016,04,20,08,04,16.80
2016,04,20,08,05,16.80
2016,04,20,08,06,16.80
2016,04,20,08,07,16.80
2016,04,20,08,08,16.80
2016,04,20,08,09,16.80
2016,04,20,08,10,16.70
2016,04,20,08,11,16.70
2016,04,20,08,12,16.60
2016,04,20,08,13,16.50
2016,04,20,08,14,16.50
2016,04,20,08,15,16.40
2016,04,20,08,16,16.30
2016,04,20,08,17,16.30
2016,04,20,08,18,16.20
2016,04,20,08,19,16.20
2016,04,20,08,20,16.20
2016,04,20,08,21,16.20
2016,04,20,08,22,16.30
2016,04,20,08,23,16.30
2016,04,20,08,24,16.30
2016,04,20,08,25,16.30
2016,04,20,08,26,16.40
2016,04,20,08,27,16.50
2016,04,20,08,28,16.50
2016,04,20,08,29,16.60
2016,04,20,08,30,16.70
2016,04,20,08,31,16.70
2016,04,20,08,32,16.80
2016,04,20,08,33,16.80
2016,04,20,08,34,16.90
2016,04,20,08,35,17.00
2016,04,20,08,36,17.10
2016,04,20,08,37,17.20
2016,04,20,08,38,17.30
2016,04,20,08,39,17.30
2016,04,20,08,40,17.40
2016,04,20,08,41,17.50
2016,04,20,08,42,17.50
2016,04,20,08,43,17.60
2016,04,20,08,44,17.70
2016,04,20,08,45,17.70
2016,04,20,08,46,17.80
2016,04,20,08,47,17.80
2016,04,20,08,48,17.80
2016,04,20,08,49,17.90
2016,04,20,08,50,17.90
2016,04,20,08,51,17.90
2016,04,20,08,52,17.90
2016,04,20,08,53,18.00
2016,04,20,08,54,18.00
2016,04,20,08,55,18.10
2016,04,20,08,56,18.20
2016,04,20,08,57,18.20
2016,04,20,08,58,18.30
2016,04,20,08,59,18.30
2016,04,20,09,00,18.40
2016,04,20,09,01,18.40
2016,04,20,09,02,18.50
2016,04,20,09,03,18.50
2016,04,20,09,04,18.50
2016,04,20,09,05,18.60
2016,04,20,09,06,18.50
2016,04,20,09,07,18.50
2016,04,20,09,08,18.50
2016,04,20,09,09,18.40
2016,04,20,09,10,18.40
2016,04,20,09,11,18.30
2016,04,20,09,12,18.30
2016,04,20,09,13,18.20
2016,04,20,09,14,18.20
2016,04,20,09,15,18.20
2016,04,20,09,16,18.30
2016,04,20,09,17,18.30
2016,04,20,09,18,18.30
2016,04,20,09,19,18.30
2016,04,20,09,20,18.30
2016,04,20,09,21,18.30
2016,04,20,09,22,18.20
2016,04,20,09,23,18.20
2016,04,20,09,24,18.10
2016,04,20,09,25,18.10
2016,04,20,09,26,18.10
2016,04,20,09,27,18.10
2016,04,20,09,28,18.10
2016,04,20,09,29,18.20
2016,04,20,09,30,18.20
2016,04,20,09,31,18.20
2016,04,20,09,32,18.20
2016,04,20,09,33,18.30
2016,04,20,09,34,18.30
2016,04,20,09,35,18.30
2016,04,20,09,36,18.30
2016,04,20,09,37,18.30
2016,04,20,09,38,18.30
2016,04,20,09,39,18.30
2016,04,20,09,40,18.30
2016,04,20,09,41,18.40
2016,04,20,09,42,18.40
2016,04,20,09,43,18.50
2016,04,20,09,44,18.60
2016,04,20,09,45,18.70
2016,04,20,09,46,18.70
2016,04,20,09,47,18.70
2016,04,20,09,48,18.70
2016,04,20,09,49,18.70
2016,04,20,09,50,18.70
2016,04,20,09,51,18.80
2016,04,20,09,52,18.80
2016,04,20,09,53,18.90
2016,04,20,09,54,18.90
2016,04,20,09,55,19.00
2016,04,20,09,56,19.00
2016,04,20,09,57,19.00
2016,04,20,09,58,19.00
2016,04,20,09,59,19.10
2016,04,20,10,00,19.10
2016,04,20,10,01,19.20
2016,04,20,10,02,19.30
2016,04,20,10,03,19.30
2016,04,20,10,04,19.30
2016,04,20,10,05,19.20
2016,04,20,10,06,19.20
2016,04,20,10,07,19.10
2016,04,20,10,08,19.10
2016,04,20,10,09,19.00
2016,04,20,10,10,19.00
2016,04,20,10,11,19.00
2016,04,20,10,12,19.00
2016,04,20,10,13,18.90
2016,04,20,10,14,18.90
2016,04,20,10,15,18.90
2016,04,20,10,16,19.00
2016,04,20,10,17,19.10
2016,04,20,10,18,19.20
2016,04,20,10,19,19.20
2016,04,20,10,20,19.20
2016,04,20,10,21,19.20
2016,04,20,10,22,19.20
2016,04,20,10,23,19.30
2016,04,20,10,24,19.40
2016,04,20,10,25,19.50
2016,04,20,10,26,19.60
2016,04,20,10,27,19.60
2016,04,20,10,28,19.70
2016,04,20,10,29,19.70
2016,04,20,10,30,19.70
2016,04,20,10,31,19.70
2016,04,20,10,32,19.70
2016,04,20,10,33,19.60
2016,04,20,10,34,19.60
2016,04,20,10,35,19.60
2016,04,20,10,36,19.60
2016,04,20,10,37,19.60
2016,04,20,10,38,19.60
2016,04,20,10,39,19.50
2016,04,20,10,40,19.50
2016,04,20,10,41,19.40
2016,04,20,10,42,19.40
2016,04,20,10,43,19.40
2016,04,20,10,44,19.40
2016,04,20,10,45,19.40
2016,04,20,10,46,19.40
2016,04,20,10,47,19.30
2016,04,20,10,48,19.30
2016,04,20,10,49,19.40
2016,04,20,10,50,19.30
2016,04,20,10,51,19.20
2016,04,20,10,52,19.30
2016,04,20,10,53,19.30
2016,04,20,10,54,19.40
2016,04,20,10,55,19.40
2016,04,20,10,56,19.50
2016,04,20,10,57,19.50
2016,04,20,10,58,19.40
2016,04,20,10,59,19.40
2016,04,20,11,00,19.50
2016,04,20,11,01,19.40
2016,04,20,11,02,19.40
2016,04,20,11,03,19.40
2016,04,20,11,04,19.40
2016,04,20,11,05,19.40
2016,04,20,11,06,19.50
2016,04,20,11,07,19.60
2016,04,20,11,08,19.70
2016,04,20,11,09,19.70
2016,04,20,11,10,19.80
2016,04,20,11,11,20.00
2016,04,20,11,12,20.10
2016,04,20,11,13,20.10
2016,04,20,11,14,20.10
2016,04,20,11,15,20.00
2016,04,20,11,16,20.00
2016,04,20,11,17,19.90
2016,04,20,11,18,20.00
2016,04,20,11,19,20.00
2016,04,20,11,20,20.10
2016,04,20,11,21,20.10
2016,04,20,11,22,20.20
2016,04,20,11,23,20.20
2016,04,20,11,24,20.30
2016,04,20,11,25,20.30
2016,04,20,11,26,20.30
2016,04,20,11,27,20.40
2016,04,20,11,28,20.40
2016,04,20,11,29,20.40
2016,04,20,11,30,20.40
2016,04,20,11,31,20.40
2016,04,20,11,32,20.30
2016,04,20,11,33,20.20
2016,04,20,11,34,20.20
2016,04,20,11,35,20.20
2016,04,20,11,36,20.20
2016,04,20,11,37,20.20
2016,04,20,11,38,20.20
2016,04,20,11,39,20.30
2016,04,20,11,40,20.30
2016,04,20,11,41,20.30
2016,04,20,11,42,20.30
2016,04,20,11,43,20.40
2016,04,20,11,44,20.50
2016,04,20,11,45,20.50
2016,04,20,11,46,20.50
2016,04,20,11,47,20.50
2016,04,20,11,48,20.50
2016,04,20,11,49,20.50
2016,04,20,11,50,20.50
2016,04,20,11,51,20.60
2016,04,20,11,52,20.60
2016,04,20,11,53,20.60
2016,04,20,11,54,20.70
2016,04,20,11,55,20.70
2016,04,20,11,56,20.80
2016,04,20,11,57,20.80
2016,04,20,11,58,20.80
2016,04,20,11,59,20.90
2016,04,20,12,00,20.90
2016,04,20,12,01,20.90
2016,04,20,12,02,20.90
2016,04,20,12,03,21.00
2016,04,20,12,04,21.00
2016,04,20,12,05,21.10
2016,04,20,12,06,21.10
2016,04,20,12,07,21.20
2016,04,20,12,08,21.30
2016,04,20,12,09,21.30
2016,04,20,12,10,21.30
2016,04,20,12,11,21.30
2016,04,20,12,12,21.20
2016,04,20,12,13,21.20
2016,04,20,12,14,21.30
2016,04,20,12,15,21.40
2016,04,20,12,16,21.40
2016,04,20,12,17,21.40
2016,04,20,12,18,21.40
2016,04,20,12,19,21.50
2016,04,20,12,20,21.60
2016,04,20,12,21,21.70
2016,04,20,12,22,21.80
2016,04,20,12,23,21.90
2016,04,20,12,24,22.00
2016,04,20,12,25,22.00
2016,04,20,12,26,22.10
2016,04,20,12,27,22.10
2016,04,20,12,28,22.20
2016,04,20,12,29,22.10
2016,04,20,12,30,22.10
2016,04,20,12,31,22.10
2016,04,20,12,32,22.10
2016,04,20,12,33,22.20
2016,04,20,12,34,22.20
2016,04,20,12,35,22.20
2016,04,20,12,36,22.20
2016,04,20,12,37,22.20
2016,04,20,12,38,22.20
2016,04,20,12,39,22.20
2016,04,20,12,40,22.30
2016,04,20,12,41,22.30
2016,04,20,12,42,22.30
2016,04,20,12,43,22.30
2016,04,20,12,44,22.30
2016,04,20,12,45,22.30
2016,04,20,12,46,22.40
2016,04,20,12,47,22.50
2016,04,20,12,48,22.60
2016,04,20,12,49,22.70
2016,04,20,12,50,22.70
2016,04,20,12,51,22.70
2016,04,20,12,52,22.70
2016,04,20,12,53,22.70
2016,04,20,12,54,22.80
2016,04,20,12,55,22.80
2016,04,20,12,56,22.80
2016,04,20,12,57,22.80
2016,04,20,12,58,22.80
2016,04,20,12,59,22.80
2016,04,20,13,00,22.90
2016,04,20,13,01,22.90
2016,04,20,13,02,22.90
2016,04,20,13,03,22.90
2016,04,20,13,04,22.90
2016,04,20,13,05,22.80
2016,04,20,13,06,22.70
2016,04,20,13,07,22.60
2016,04,20,13,08,22.50
2016,04,20,13,09,22.30
2016,04,20,13,10,22.20
2016,04,20,13,11,22.30
2016,04,20,13,12,22.30
2016,04,20,13,13,22.30
2016,04,20,13,14,22.30
2016,04,20,13,15,22.30
2016,04,20,13,16,22.30
2016,04,20,13,17,22.40
2016,04,20,13,18,22.40
2016,04,20,13,19,22.30
2016,04,20,13,20,22.40
2016,04,20,13,21,22.40
2016,04,20,13,22,22.40
2016,04,20,13,23,22.40
2016,04,20,13,24,22.40
2016,04,20,13,25,22.40
2016,04,20,13,26,22.50
2016,04,20,13,27,22.50
2016,04,20,13,28,22.50
2016,04,20,13,29,22.50
2016,04,20,13,30,22.40
2016,04,20,13,31,22.40
2016,04,20,13,32,22.40
2016,04,20,13,33,22.50
2016,04,20,13,34,22.50
2016,04,20,13,35,22.50
2016,04,20,13,36,22.60
2016,04,20,13,37,22.60
2016,04,20,13,38,22.70
2016,04,20,13,39,22.70
2016,04,20,13,40,22.80
2016,04,20,13,41,22.80
2016,04,20,13,42,22.80
2016,04,20,13,43,22.90
2016,04,20,13,44,22.90
2016,04,20,13,45,23.00
2016,04,20,13,46,23.10
2016,04,20,13,47,23.30
2016,04,20,13,48,23.40
2016,04,20,13,49,23.40
2016,04,20,13,50,23.40
2016,04,20,13,51,23.50
2016,04,20,13,52,23.60
2016,04,20,13,53,23.60
2016,04,20,13,54,23.50
2016,04,20,13,55,23.50
2016,04,20,13,56,23.50
2016,04,20,13,57,23.50
2016,04,20,13,58,23.50
2016,04,20,13,59,23.50
2016,04,20,14,00,23.50
2016,04,20,14,01,23.50
2016,04,20,14,02,23.40
2016,04,20,14,03,23.50
2016,04,20,14,04,23.50
2016,04,20,14,05,23.50
2016,04,20,14,06,23.50
2016,04,20,14,07,23.40
2016,04,20,14,08,23.40
2016,04,20,14,09,23.40
2016,04,20,14,10,23.40
2016,04,20,14,11,23.40
2016,04,20,14,12,23.40
2016,04,20,14,13,23.40
2016,04,20,14,14,23.50
2016,04,20,14,15,23.60
2016,04,20,14,16,23.60
2016,04,20,14,17,23.70
2016,04,20,14,18,23.80
2016,04,20,14,19,23.80
2016,04,20,14,20,23.80
2016,04,20,14,21,23.80
2016,04,20,14,22,23.80
2016,04,20,14,23,23.90
2016,04,20,14,24,24.00
2016,04,20,14,25,24.00
2016,04,20,14,26,24.10
2016,04,20,14,27,24.10
2016,04,20,14,28,24.20
2016,04,20,14,29,24.20
2016,04,20,14,30,24.10
2016,04,20,14,31,24.00
2016,04,20,14,32,23.90
2016,04,20,14,33,23.80
2016,04,20,14,34,23.80
2016,04,20,14,35,23.70
2016,04,20,14,36,23.60
2016,04,20,14,37,23.60
2016,04,20,14,38,23.60
2016,04,20,14,39,23.50
2016,04,20,14,40,23.50
2016,04,20,14,41,23.40
2016,04,20,14,42,23.40
2016,04,20,14,43,23.40
2016,04,20,14,44,23.40
2016,04,20,14,45,23.50
2016,04,20,14,46,23.50
2016,04,20,14,47,23.50
2016,04,20,14,48,23.50
2016,04,20,14,49,23.60
2016,04,20,14,50,23.60
2016,04,20,14,51,23.60
2016,04,20,14,52,23.60
2016,04,20,14,53,23.60
2016,04,20,14,54,23.70
2016,04,20,14,55,23.70
2016,04,20,14,56,23.60
2016,04,20,14,57,23.60
2016,04,20,14,58,23.50
2016,04,20,14,59,23.40
2016,04,20,15,00,23.50
2016,04,20,15,01,23.60
2016,04,20,15,02,23.60
2016,04,20,15,03,23.60
2016,04,20,15,04,23.60
2016,04,20,15,05,23.60
2016,04,20,15,06,23.50
2016,04,20,15,07,23.50
2016,04,20,15,08,23.60
2016,04,20,15,09,23.60
2016,04,20,15,10,23.50
2016,04,20,15,11,23.40
2016,04,20,15,12,23.30
2016,04,20,15,13,23.20
2016,04,20,15,14,23.20
2016,04,20,15,15,23.10
2016,04,20,15,16,23.10
2016,04,20,15,17,23.10
2016,04,20,15,18,23.10
2016,04,20,15,19,23.10
2016,04,20,15,20,23.10
2016,04,20,15,21,23.10
2016,04,20,15,22,23.20
2016,04,20,15,23,23.30
2016,04,20,15,24,23.40
2016,04,20,15,25,23.40
2016,04,20,15,26,23.40
2016,04,20,15,27,23.50
2016,04,20,15,28,23.60
2016,04,20,15,29,23.70
2016,04,20,15,30,23.70
2016,04,20,15,31,23.80
2016,04,20,15,32,23.80
2016,04,20,15,33,23.80
2016,04,20,15,34,23.80
2016,04,20,15,35,23.90
2016,04,20,15,36,24.00
2016,04,20,15,37,24.10
2016,04,20,15,38,24.00
2016,04,20,15,39,23.90
2016,04,20,15,40,23.80
2016,04,20,15,41,23.60
2016,04,20,15,42,23.50
2016,04,20,15,43,23.30
2016,04,20,15,44,23.30
2016,04,20,15,45,23.20
2016,04,20,15,46,23.10
2016,04,20,15,47,23.20
2016,04,20,15,48,23.20
2016,04,20,15,49,23.20
2016,04,20,15,50,23.20
2016,04,20,15,51,23.20
2016,04,20,15,52,23.30
2016,04,20,15,53,23.40
2016,04,20,15,54,23.50
2016,04,20,15,55,23.50
2016,04,20,15,56,23.60
2016,04,20,15,57,23.70
2016,04,20,15,58,23.80
2016,04,20,15,59,23.90
2016,04,20,16,00,23.90
2016,04,20,16,01,24.00
2016,04,20,16,02,24.00
2016,04,20,16,03,24.10
2016,04,20,16,04,24.10
2016,04,20,16,05,24.20
2016,04,20,16,06,24.20
2016,04,20,16,07,24.30
2016,04,20,16,08,24.30
2016,04,20,16,09,24.30
2016,04,20,16,10,24.30
2016,04,20,16,11,24.20
2016,04,20,16,12,24.20
2016,04,20,16,13,24.30
2016,04,20,16,14,24.30
2016,04,20,16,15,24.30
2016,04,20,16,16,24.20
2016,04,20,16,17,24.10
2016,04,20,16,18,24.00
2016,04,20,16,19,23.90
2016,04,20,16,20,23.90
2016,04,20,16,21,23.90
2016,04,20,16,22,24.00
2016,04,20,16,23,24.00
2016,04,20,16,24,24.10
2016,04,20,16,25,24.10
2016,04,20,16,26,24.10
2016,04,20,16,27,24.20
2016,04,20,16,28,24.30
2016,04,20,16,29,24.30
2016,04,20,16,30,24.40
2016,04,20,16,31,24.40
2016,04,20,16,32,24.40
2016,04,20,16,33,24.40
2016,04,20,16,34,24.40
2016,04,20,16,35,24.50
2016,04,20,16,36,24.60
2016,04,20,16,37,24.60
2016,04,20,16,38,24.60
2016,04,20,16,39,24.70
2016,04,20,16,40,24.60
2016,04,20,16,41,24.60
2016,04,20,16,42,24.70
2016,04,20,16,43,24.70
2016,04,20,16,44,24.70
2016,04,20,16,45,24.70
2016,04,20,16,46,24.60
2016,04,20,16,47,24.60
2016,04,20,16,48,24.60
2016,04,20,16,49,24.70
2016,04,20,16,50,24.80
2016,04,20,16,51,24.80
2016,04,20,16,52,24.90
2016,04,20,16,53,24.90
2016,04,20,16,54,24.90
2016,04,20,16,55,24.90
2016,04,20,16,56,24.90
2016,04,20,16,57,24.90
2016,04,20,16,58,24.90
2016,04,20,16,59,24.90
2016,04,20,17,00,25.00
2016,04,20,17,01,25.00
2016,04,20,17,02,25.00
2016,04,20,17,03,25.10
2016,04,20,17,04,25.10
2016,04,20,17,05,25.20
2016,04,20,17,06,25.40
2016,04,20,17,07,25.50
2016,04,20,17,08,25.60
2016,04,20,17,09,25.50
2016,04,20,17,10,25.30
2016,04,20,17,11,25.20
2016,04,20,17,12,25.00
2016,04,20,17,13,24.70
2016,04,20,17,14,24.50
2016,04,20,17,15,24.30
2016,04,20,17,16,24.10
2016,04,20,17,17,23.90
2016,04,20,17,18,23.70
2016,04,20,17,19,23.50